Flag for Canada Weather past 2 weeks in Yarmouth County, Nova Scotia, Canada

Now
48 °F

Passing clouds.


Feels Like: 42 °F
Forecast: 38 / 49 °F
Wind: 15 mph from North

Location: Yarmouth


UV Index: 5 (Moderate)

Visibility: 15 mi


Pressure: 30.42 "Hg

Humidity: 46%

Dew point: 28 °F

Location of Yarmouth CountyLocation

Historic Weather in Yarmouth County

°F

Yarmouth County temperature yesterday

Maximum temperature yesterday: 43 °F (at 12:00 PM)
Minimum temperature yesterday: 34 °F (at 1:00 AM)
Average temperature yesterday: 39 °F

Past Weeks' High & Low Weather Summary

 TemperatureHumidityPressure
High61 °F (Apr 15, 4:00 PM)100% (Apr 5, 1:02 PM)30.77 "Hg (Apr 5, 1:02 PM)
Low27 °F (Apr 17, 2:00 AM)26% (Apr 17, 1:00 PM)29.38 "Hg (Apr 9, 12:00 AM)
Average42 °F81%30.09 "Hg
* Reported Apr 5 1:02 PM — Apr 20 1:00 PM, Yarmouth County, Weather by CustomWeather, © 2014

Note: Actual official high and low records may vary slightly from our data, if they occured in-between our weather recording intervals... More about our weather records

Advertising

Historic Weather Conditions — Data for Previous 24 hours

 ConditionsComfort  
Time TempWeatherWind HumidityBarometerVisibility
1:00 PM
Apr 20
46 °FPassing clouds.15 mph53%30.46 "Hg15 mi
12:00 PM45 °FPassing clouds.17 mph66%30.47 "Hg15 mi
11:00 AM45 °FPassing clouds.14 mph66%30.47 "Hg15 mi
10:00 AM43 °FScattered clouds.14 mph66%30.46 "Hg15 mi
9:00 AM39 °FPartly sunny.12 mph81%30.46 "Hg15 mi
8:00 AM39 °FPartly sunny.13 mph81%30.44 "Hg15 mi
7:00 AM37 °FPassing clouds.8 mph81%30.40 "Hg15 mi
6:00 AM37 °FPartly cloudy.9 mph81%30.37 "Hg15 mi
5:00 AM39 °FOvercast.15 mph75%30.35 "Hg15 mi
4:00 AM39 °FOvercast.15 mph75%30.32 "Hg15 mi
3:00 AM39 °FPartly cloudy.21 mph75%30.29 "Hg15 mi
2:00 AM39 °FPassing clouds.14 mph75%30.27 "Hg15 mi
1:00 AM39 °FPassing clouds.15 mph75%30.27 "Hg15 mi
12:00 AM41 °FPassing clouds.14 mph70%30.26 "Hg15 mi
11:00 PM
Apr 19
41 °FPassing clouds.12 mph76%30.23 "Hg15 mi
10:00 PM43 °FPassing clouds.15 mph71%30.20 "Hg15 mi
9:00 PM43 °FPartly sunny.14 mph76%30.18 "Hg12 mi
8:00 PM41 °FScattered clouds.13 mph87%30.16 "Hg15 mi
7:00 PM43 °FPartly sunny.12 mph81%30.14 "Hg15 mi
6:00 PM43 °FPassing clouds.15 mph81%30.12 "Hg12 mi
5:00 PM43 °FScattered clouds.18 mph81%30.11 "Hg12 mi
4:00 PM43 °FBroken clouds.15 mph87%30.10 "Hg12 mi
3:00 PM43 °FMostly cloudy.15 mph87%30.11 "Hg12 mi
2:00 PM43 °FPartly sunny.12 mph81%30.11 "Hg12 mi
Weather by CustomWeather, © 2014

See weather overview